User: anonymous   Login
Location: UBC Liquid-Mirror Observatory
(49.2876°N, 122.5728°W)
Time: 16:56:39
(UTC-07:00)
Language:

KITSAT 1 - Orbit

View from above orbital plane
View from above orbital plane
View from above satellite
View from above satellite

Ground track
Ground track

The orbit data is extracted from the following two-line orbital elements,

1 22077U 92052B   15123.55444541 -.00000023  00000-0  15487-3 0  9994
2 22077 066.0825 151.2314 0009484 324.0401 114.9237 12.86504807 67611
Epoch (UTC): 03 May 2015 13:18:24
Eccentricity: 0.0009484
inclination: 66.0825°
perigee height: 1308 km
apogee height: 1323 km
right ascension of ascending node: 151.2314°
argument of perigee: 324.0401°
revolutions per day: 12.86504807
mean anomaly at epoch: 114.9237°
orbit number at epoch: 6761

The dashed part of the orbit path shows where the satellite is in the earth's shadow,  

DLR